Mt. Pocono, PA

6:01 PM EDT on October 22, 2019 (GMT -0400)
Pocono Mountains Municipal

Weather History for KMPO - September, 2019

Change the Weather History Date:

Friday, September 20, 2019

  Actual Average Record
Temperature  
Mean Temperature 55 °F 57 °F  
Max Temperature 73 °F 66 °F 85 °F (1983)
Min Temperature 37 °F 48 °F 28 °F (1979)
Degree Days  
Heating Degree Days 10 8  
Month to date heating degree days 87 102  
Since 1 July heating degree days 128 165  
Cooling Degree Days 0 0  
Month to date cooling degree days 19 13  
Year to date cooling degree days 337 309  
Growing Degree Days 5 (Base 50)    
Moisture  
Dew Point 45 °F    
Average Humidity 68    
Maximum Humidity 100    
Minimum Humidity 35    
Precipitation  
Precipitation 0.00 in 0.18 in 2.00 in (2001)
Month to date precipitation 0.92 3.38  
Year to date precipitation 35.85 34.36  
Sea Level Pressure  
Sea Level Pressure 30.27 in    
Wind  
Wind Speed 5 mph ()    
Max Wind Speed 17 mph    
Max Gust Speed 21 mph    
Visibility 10.0 miles    
Events      
T = Trace of Precipitation, MM = Missing Value Source: Averaged Metar Reports

Daily Weather History Graph

Daily Weather History Graph

Search for Another Location

Airport or City:

Astronomy

Sep. 20, 2019 Rise Set
Actual Time 6:46 AM EDT 7:02 PM EDT
Civil Twilight 6:19 AM EDT 7:30 PM EDT
Nautical Twilight 5:46 AM EDT 8:02 PM EDT
Astronomical Twilight 5:13 AM EDT 8:35 PM EDT
Moon 10:47 PM EDT (9/20) 12:52 PM EDT (9/20)
Length of Visible Light 13h 10m
Length of Day
12h 15m
Waning Gibbous, 65% of the Moon is Illuminated
Sep 20
Waning Gibbous
Sep 21
Last Quarter
Sep 28
New
Oct 5
First Quarter
Oct 13
Full

Hourly Weather History & Observations

Time (EDT) Temp. Windchill Dew Point Humidity Pressure Visibility Wind Dir Wind Speed Gust Speed Precip Events Conditions
12:53 AM 41.0 °F - 37.9 °F 89% 30.31 in 10.0 mi Calm Calm - N/A   Clear
1:53 AM 44.1 °F 41.5 °F 39.9 °F 85% 30.30 in 10.0 mi NW 4.6 mph - N/A   Clear
2:53 AM 39.9 °F - 39.9 °F 100% 30.30 in 10.0 mi Calm Calm - N/A   Clear
3:53 AM 37.0 °F 34.5 °F 37.0 °F 100% 30.29 in 10.0 mi West 3.5 mph - N/A   Clear
4:53 AM 41.0 °F 37.1 °F 39.0 °F 93% 30.29 in 10.0 mi WNW 5.8 mph - N/A   Clear
5:53 AM 45.0 °F 40.1 °F 39.9 °F 82% 30.28 in 10.0 mi NW 9.2 mph - N/A   Clear
6:53 AM 46.9 °F - 39.9 °F 77% 30.30 in 10.0 mi WNW 10.4 mph - N/A   Clear
7:53 AM 51.1 °F - 42.1 °F 71% 30.32 in 10.0 mi WNW 9.2 mph - N/A   Clear
8:53 AM 55.0 °F - 43.0 °F 64% 30.33 in 10.0 mi West 11.5 mph - N/A   Clear
9:53 AM 59.0 °F - 44.1 °F 58% 30.32 in 10.0 mi West 12.7 mph - N/A   Clear
10:53 AM 63.0 °F - 46.9 °F 56% 30.31 in 10.0 mi WNW 15.0 mph - N/A   Clear
11:53 AM 66.0 °F - 48.0 °F 52% 30.29 in 10.0 mi Variable 6.9 mph - N/A   Clear
12:53 PM 68.0 °F - 46.0 °F 45% 30.27 in 10.0 mi WSW 8.1 mph - N/A   Clear
1:53 PM 70.0 °F - 46.9 °F 44% 30.25 in 10.0 mi West 10.4 mph - N/A   Clear
2:53 PM 71.1 °F - 46.0 °F 41% 30.23 in 10.0 mi SW 8.1 mph - N/A   Clear
3:53 PM 71.1 °F - 44.1 °F 38% 30.23 in 10.0 mi SSW 3.5 mph - N/A   Clear
4:53 PM 72.0 °F - 43.0 °F 35% 30.22 in 10.0 mi West 6.9 mph - N/A   Clear
5:53 PM 70.0 °F - 48.0 °F 46% 30.21 in 10.0 mi WSW 5.8 mph - N/A   Clear
6:53 PM 64.0 °F - 48.9 °F 58% 30.23 in 10.0 mi West 4.6 mph - N/A   Clear
7:53 PM 59.0 °F - 50.0 °F 72% 30.25 in 10.0 mi WNW 5.8 mph - N/A   Clear
8:53 PM 59.0 °F - 50.0 °F 72% 30.25 in 10.0 mi NW 6.9 mph - N/A   Clear
9:53 PM 55.0 °F - 50.0 °F 83% 30.25 in 10.0 mi NW 5.8 mph - N/A   Clear
10:53 PM 54.0 °F - 50.0 °F 86% 30.24 in 10.0 mi NW 8.1 mph - N/A   Clear
11:53 PM 54.0 °F - 50.0 °F 86% 30.25 in 10.0 mi WNW 6.9 mph - N/A   Clear